Hourly Weather Roundup
Issued by NWS Central Illinois

Home | Current Version | Previous Version | Graphics & Text | Print | Product List | Glossary On
Versions: 1 2 3 4 5 6 7 8 9 10 11 12 13 14 15 16 17 18 19 20 21 22 23 24 25 26 27 28 29 30 31 32 33 34 35 36 37 38 39 40 41 42 43 44 45 46 47 48 49 50
000
NZUS43 KILX 220610
HWRILX

AREA WEATHER ROUNDUP
NATIONAL WEATHER SERVICE, LINCOLN IL
100 AM CDT FRI AUG 22 2014


CITY           SKY/WX    TMP DP  RH WIND       PRES   REMARKS
BLOOMINGTON    FAIR      78  74  87 SW13      29.93F HX  80
CHAMPAIGN      FAIR      77  75  93 S9        29.94F
6HR MIN TEMP:  77; 6HR MAX TEMP:  84;

DECATUR        FAIR      80  75  84 SW12      29.94F HX  85
6HR MIN TEMP:  80; 6HR MAX TEMP:  86;

FLORA          FAIR      76  74  91 S8        29.99F
6HR MIN TEMP:  76; 6HR MAX TEMP:  83;

GALESBURG      MOCLDY    78  76  94 S7        29.89F HX  81
JACKSONVILLE   FAIR      81  77  86 S7        29.93F HX  89
6HR MIN TEMP:  81; 6HR MAX TEMP:  89;

LACON          CLOUDY    78  76  93 CALM      29.89F HX  81
6HR MIN TEMP:  78; 6HR MAX TEMP:  83; 6HR PCP:  0.06;

LAWRENCEVILLE  FAIR      75  73  93 S3        30.00F
6HR MIN TEMP:  75; 6HR MAX TEMP:  85;

LITCHFIELD     FAIR      76  74  96 S8        29.97F
$$


CITY           SKY/WX    TMP DP  RH WIND       PRES   REMARKS
LINCOLN        FAIR      79  76  89 S5        29.88F HX  84
6HR MIN TEMP:  79; 6HR MAX TEMP:  87;

MACOMB         FAIR      78  75  91 S7        29.92F HX  81
MATTOON        FAIR      77  74  90 S9        29.96F
6HR MIN TEMP:  77; 6HR MAX TEMP:  83;

MT CARMEL AP   FAIR      79  75  89 SW8       30.00F HX  82
OLNEY-NOBLE AP FAIR      77  73  88 CALM      29.99F
PARIS          FAIR      77  75  92 SW7       29.97F
6HR MIN TEMP:  75; 6HR MAX TEMP:  83;

PEORIA         FAIR      81  75  82 SW8       29.90F HX  87
6HR MIN TEMP:  81; 6HR MAX TEMP:  86;

PONTIAC        FAIR      81  79  94 S6        29.92F HX  89
RANTOUL        FAIR      80  73  79 SW9       29.94F HX  85
6HR MIN TEMP:  78; 6HR MAX TEMP:  85;

ROBINSON       FAIR      78  76  92 SW8       30.00F HX  81
6HR MIN TEMP:  73; 6HR MAX TEMP:  85;

SPRINGFIELD    FAIR      81  76  84 S12       29.92F HX  87
6HR MIN TEMP:  81; 6HR MAX TEMP:  88;

TAYLORVILLE    FAIR      77  73  88 S12       29.95F
$$

...REGIONAL REPORTS...


CITY           SKY/WX    TMP DP  RH WIND       PRES   REMARKS
CHICAGO O`HARE TSTM      75  71  87 NW13      29.93F FOG
KANKAKEE       FAIR      73  73  97 SE3       29.92F
MOLINE         FAIR      74  72  93 CALM      29.88F
MOUNT VERNON   FAIR      77  72  83 S7        30.01S
PITTSFIELD     FAIR      80  73  81 S6        29.93F HX  84
QUINCY         FAIR      78  74  87 S7        29.91F HX  81
ROCKFORD       CLOUDY    75  72  90 VRB3      29.92F
$$


CITY           SKY/WX    TMP DP  RH WIND       PRES   REMARKS
BURLINGTON     TSTM      79  77  94 S15G24    29.88F HX  83
CEDAR RAPIDS   FAIR      73  73 100 E6        29.89S FOG
DES MOINES     FAIR      80  76  87 SE7       29.85F HX  86
KIRKSVILLE     FAIR      82  73  74 SW10      29.92F HX  87
OTTUMWA        MOCLDY    79  75  87 S7        29.87F HX  83
ST LOUIS       FAIR      85  74  69 S10       29.97S HX  92
$$


CITY           SKY/WX    TMP DP  RH WIND       PRES   REMARKS
TERRE HAUTE    FAIR      78  73  84 SW8       29.98F HX  81
EVANSVILLE     FAIR      78  72  81 SW6       30.03S HX  80
INDIANAPOLIS   CLOUDY    73  70  90 SE3       30.00F
LAFAYETTE      LGT RAIN  74  73  97 CALM      29.94F
MADISON        FAIR      74  72  93 SE5       29.91F
MILWAUKEE      FOG       70  68  93 SE5       29.93F VSB 1/4
$$




USA.gov is the U.S. government's official web portal to all federal, state and local government web resources and services.